Temperature
18 18 18 19 19 19 19 19 18 17 16 15 14 13 13 13 12 12 12 11 11 11 11 11 11 10 10 10 9 8 8 7 7 8 8 9 8 8 8 7 7 8 8
17 18 18 18 18 18 18 18 17 16 16 14 13 13 13 12 12 12 11 11 11 11 11 10 10 10 9 9 8 7 7 6 6 5 6 6 7 7 7 8 8 7 7
17 18 18 18 17 17 17 17 16 15 14 14 13 13 12 12 11 11 11 11 11 11 10 10 10 9 9 8 8 7 6 5 5 4 3 3 3 3 4 5 5 5 5
17 18 18 17 17 16 16 16 15 14 14 13 13 13 12 12 11 11 11 11 11 10 10 9 9 9 8 7 7 6 5 4 4 4 3 3 2 1 1 3 4 4 4
17 18 18 18 17 16 15 15 14 14 13 13 13 12 12 12 11 11 11 11 10 10 9 9 8 8 7 7 6 5 4 4 3 3 3 2 2 1 -1 -1 1 3 3
17 17 18 17 16 15 14 14 13 12 12 13 12 12 11 11 11 11 11 11 10 9 9 8 8 7 6 6 5 4 4 3 3 2 2 1 1 0 -2 -3 -2 -2 0
16 16 16 16 15 14 14 13 12 12 12 12 12 11 11 11 11 11 11 10 10 9 8 7 7 6 6 5 4 4 3 3 3 2 2 1 0 -1 -2 -2 -3 -3 -2
16 15 15 16 15 15 13 12 12 12 12 11 11 11 11 11 11 11 10 9 9 8 7 7 6 5 5 4 4 3 3 3 2 2 1 1 0 -1 -2 -3 -4 -5 -4
15 15 14 14 15 14 13 12 12 12 11 11 11 11 11 11 10 10 9 9 8 7 7 6 5 5 4 4 3 3 2 2 2 1 1 0 -0 -1 -2 -3 -4 -6 -7
13 13 13 13 13 13 12 12 12 11 11 11 11 11 10 10 10 9 9 8 7 7 6 5 5 4 3 3 2 2 2 2 1 1 1 0 -1 -2 -3 -5 -5 -6 -7
12 12 11 12 13 12 12 11 11 11 11 11 11 11 10 10 9 8 8 7 6 6 5 5 4 3 3 2 2 1 1 1 1 1 0 -1 -2 -4 -5 -6 -7 -7 -7
10 9 9 11 12 12 12 11 11 11 11 11 10 10 10 9 8 8 7 6 6 5 5 4 3 2 2 1 1 1 1 1 0 -0 -1 -2 -4 -5 -6 -7 -7 -8 -8
8 7 8 10 11 11 11 11 11 11 10 10 10 9 9 8 8 7 6 6 5 5 4 3 2 2 1 1 1 1 0 -0 -1 -2 -3 -4 -5 -6 -7 -7 -8 -8 -8
7 7 9 10 11 11 11 10 10 10 10 9 9 9 8 7 7 6 5 5 4 4 3 2 1 1 1 1 0 -0 -1 -1 -2 -4 -5 -5 -6 -7 -8 -8 -8 -8 -8
6 8 9 10 10 10 10 10 10 9 9 9 8 8 7 6 6 5 4 4 3 2 2 1 1 0 0 -0 -1 -2 -3 -3 -4 -5 -6 -7 -7 -8 -8 -8 -8 -8 -8
6 8 9 10 10 10 10 9 9 9 8 8 7 7 6 5 5 4 3 3 2 1 1 0 0 -0 -0 -1 -1 -3 -5 -5 -6 -7 -7 -8 -8 -8 -8 -8 -8 -8 -8
7 8 10 10 10 10 9 9 9 8 8 7 6 6 5 4 3 3 2 2 1 0 -0 -0 -0 -1 -1 -2 -2 -4 -6 -6 -7 -7 -8 -8 -8 -8 -8 -8 -8 -8 -9
7 9 10 10 10 9 9 9 8 8 7 6 5 4 3 3 2 2 1 0 0 -0 -1 -1 -1 -1 -2 -2 -3 -4 -6 -7 -8 -8 -8 -8 -9 -9 -9 -8 -8 -9 -9
9 9 10 10 10 9 8 8 7 6 5 4 4 3 2 2 1 1 0 -0 -1 -1 -1 -1 -2 -2 -3 -3 -4 -6 -7 -8 -8 -8 -8 -9 -9 -9 -9 -9 -9 -10 -10
9 9 10 10 9 8 8 7 6 5 4 3 3 2 1 1 0 -0 -0 -1 -1 -1 -2 -2 -3 -3 -4 -4 -6 -7 -8 -8 -8 -9 -9 -9 -9 -9 -9 -9 -10 -10 -10
9 9 9 9 8 8 7 6 5 4 3 2 2 1 0 0 -0 -1 -1 -1 -2 -2 -3 -3 -3 -4 -4 -5 -6 -8 -9 -9 -9 -9 -9 -9 -10 -9 -10 -10 -11 -11 -10
8 8 8 7 7 6 6 5 4 3 2 1 1 0 -0 -1 -1 -1 -2 -2 -2 -3 -3 -3 -4 -4 -5 -7 -8 -9 -9 -9 -9 -9 -10 -10 -10 -10 -11 -11 -11 -11 -11
7 7 7 6 5 4 4 4 2 1 1 0 -0 -1 -1 -1 -2 -2 -2 -3 -3 -4 -4 -5 -5 -6 -7 -8 -8 -9 -10 -9 -9 -10 -10 -10 -11 -11 -10 -10 -10 -10 -10
6 6 6 5 3 2 2 2 1 0 -0 -0 -1 -1 -2 -2 -2 -3 -3 -3 -4 -4 -5 -6 -7 -8 -8 -9 -9 -10 -10 -10 -10 -10 -10 -11 -10 -10 -10 -10 -10 -10 -11
5 5 5 4 2 1 1 0 0 -0 -1 -1 -1 -2 -2 -2 -3 -3 -4 -4 -5 -6 -7 -8 -9 -9 -9 -10 -10 -10 -10 -10 -11 -11 -11 -10 -10 -10 -10 -10 -10 -10 -10
4 4 3 3 1 0 0 -0 -1 -1 -1 -1 -2 -2 -3 -3 -3 -4 -4 -5 -6 -6 -7 -8 -9 -9 -10 -10 -10 -11 -11 -11 -11 -11 -11 -11 -11 -11 -11 -11 -11 -10 -10
Wind_Speed
12 8 8 8 7 7 10 13 15 14 14 12 10 9 8 7 7 7 10 12 14 14 11 6 6 6 7 6 6 5 6 5 5 5 6 5 4 2 2 2 1 4 9
9 7 8 8 8 8 11 14 15 14 13 11 7 5 7 7 7 6 8 11 13 12 11 7 6 6 6 8 8 6 4 4 5 4 4 5 6 5 4 3 3 6 7
14 11 10 10 9 9 11 12 13 13 13 14 11 11 8 6 5 5 5 6 11 13 12 9 6 6 7 6 6 6 5 4 4 5 5 4 4 5 5 5 4 5 5
14 11 12 11 10 9 9 12 13 14 15 16 16 17 10 7 5 5 5 6 10 11 11 10 9 6 6 7 5 5 3 3 3 3 3 1 3 3 6 5 4 4 7
15 15 16 14 9 9 11 12 13 13 15 15 17 16 11 8 7 7 8 7 6 8 10 10 8 6 6 6 6 4 4 2 1 1 2 2 2 2 3 7 6 7 5
13 13 11 10 9 9 11 13 14 13 13 14 15 16 16 15 13 9 8 6 5 5 6 9 8 6 5 5 4 3 3 2 1 1 1 2 2 2 4 6 11 11 7
10 11 13 15 15 15 14 14 16 14 12 14 13 14 16 15 14 11 9 7 5 4 5 5 5 4 5 4 3 3 2 1 2 2 2 2 3 3 3 6 11 11 7
10 13 16 17 17 17 16 15 16 14 12 13 11 11 12 10 9 8 8 7 5 5 5 5 5 5 4 4 3 2 2 2 3 3 4 3 4 4 4 4 8 13 6
13 14 14 13 15 16 15 15 15 13 12 12 12 11 11 11 10 9 7 6 6 6 6 6 5 4 3 3 3 2 3 4 3 4 5 4 5 5 5 5 5 6 10
12 13 13 12 11 11 11 11 13 14 11 11 11 11 10 11 11 10 9 8 7 6 7 6 4 3 3 3 3 3 4 4 4 4 6 6 5 5 5 6 6 7 11
14 14 14 13 14 13 12 12 13 14 13 11 12 13 12 11 11 9 8 8 7 7 6 5 4 3 3 3 3 4 5 5 6 6 7 8 8 6 6 6 7 8 9
10 12 13 14 15 15 13 12 13 14 12 12 13 13 12 11 10 9 8 8 7 6 6 5 4 4 4 4 4 5 6 7 8 8 8 9 8 8 7 7 8 9 9
12 13 13 13 14 14 13 12 12 14 13 13 14 13 11 11 10 9 8 7 7 6 6 5 4 4 4 5 5 5 6 7 7 8 8 9 9 9 8 9 10 10 11
14 13 13 12 13 13 13 13 12 13 14 13 13 12 10 9 9 8 8 7 7 6 5 4 4 4 5 5 6 6 6 5 6 7 8 8 9 10 10 10 9 9 10
14 14 13 12 13 13 12 12 13 12 13 13 12 10 9 9 8 8 7 7 7 6 4 4 4 4 5 5 7 5 4 4 6 7 8 9 13 15 13 13 11 11 12
14 14 14 15 15 15 14 13 13 11 12 13 11 9 9 8 8 8 7 7 6 5 4 4 5 6 5 11 14 11 4 4 6 8 8 9 11 15 21 25 24 22 16
15 16 16 15 14 14 15 14 12 12 12 12 10 9 9 8 8 7 7 6 5 4 4 4 5 6 8 13 15 16 8 5 7 9 9 10 12 17 13 19 23 16 22
14 13 14 14 13 12 13 14 13 13 12 11 10 8 9 8 7 7 7 5 3 3 3 4 5 6 8 14 16 18 8 6 8 10 10 11 12 14 18 15 12 10 12
11 12 13 15 14 14 15 16 13 12 12 10 9 8 8 8 7 7 5 3 3 3 3 4 6 7 9 15 18 18 6 7 9 10 11 12 11 21 26 16 12 12 13
14 14 14 15 15 14 15 16 14 12 11 9 9 8 8 8 7 6 3 2 2 3 5 6 6 7 8 14 18 18 6 7 8 8 8 14 18 24 26 15 11 14 16
15 16 15 14 13 14 16 16 13 11 10 10 10 9 8 8 6 5 3 2 3 5 5 6 7 7 9 14 18 19 9 8 8 8 7 8 22 25 26 21 11 17 20
15 15 16 14 11 13 16 15 12 9 11 11 10 9 7 6 5 5 4 4 4 5 6 6 7 6 8 12 16 19 19 18 10 9 7 11 24 25 24 18 20 24 20
13 13 17 15 11 10 14 15 9 10 11 11 9 7 7 6 5 4 4 3 3 4 5 6 7 7 7 9 18 19 22 22 13 10 19 22 23 21 15 19 23 18 11
13 14 16 15 12 10 12 12 10 10 11 10 8 6 6 5 5 4 3 3 4 5 6 6 7 7 7 7 8 8 10 15 12 10 13 19 20 17 17 16 13 10 11
11 12 14 14 12 11 11 9 9 10 10 8 7 5 5 4 3 3 3 4 4 5 7 5 5 8 7 11 19 15 10 10 11 13 6 7 10 9 10 11 11 11 11
12 13 13 13 12 11 10 8 8 9 9 7 5 4 3 3 3 3 4 7 7 11 13 13 12 10 14 19 20 20 21 21 21 14 9 9 10 10 12 13 13 13 12
Wind_Direction
259 262 229 198 177 158 150 148 150 146 139 136 133 128 117 108 96 93 100 105 106 104 98 93 79 72 73 60 39 30 17 1 353 349 331 335 355 331 335 12 25 18 17
256 234 207 196 191 170 157 153 153 152 145 140 131 121 119 107 94 94 93 99 103 102 97 93 90 85 81 61 46 40 28 6 12 11 354 349 342 341 336 344 12 17 12
239 220 201 201 193 179 163 155 151 148 140 132 121 117 109 105 104 101 86 83 96 95 98 99 97 83 79 71 58 47 50 14 359 31 39 11 319 306 313 326 342 0 4
227 210 196 197 193 176 153 147 149 147 145 141 142 143 144 142 142 132 113 92 90 95 98 96 90 82 80 75 62 59 52 53 14 350 14 254 249 288 311 299 297 327 317
216 205 199 193 174 156 152 150 147 150 153 152 151 147 136 123 122 116 112 97 84 87 92 91 87 81 79 76 66 59 59 77 75 349 317 309 295 255 277 292 303 306 276
213 205 182 153 147 151 152 154 153 155 155 149 149 147 141 138 138 134 126 113 98 82 83 88 85 83 79 74 67 61 55 52 39 301 256 254 283 297 281 288 307 307 293
199 179 165 165 164 164 162 161 158 156 152 147 145 146 145 146 147 145 138 130 115 103 94 85 80 76 77 77 66 49 17 343 332 300 271 253 245 245 262 291 307 304 295
189 183 182 176 169 166 164 163 159 153 148 144 136 134 135 135 134 133 131 123 120 123 109 92 85 79 72 63 46 23 330 319 308 288 277 261 253 245 256 274 305 313 299
191 185 178 172 165 163 163 161 153 145 143 137 128 127 127 126 127 121 111 112 118 114 100 92 85 69 52 35 15 346 326 317 293 280 272 252 248 243 246 254 266 285 302
190 177 166 156 150 147 141 141 142 139 132 128 128 126 120 120 121 116 116 113 104 98 98 88 78 55 31 12 359 332 316 313 297 276 271 262 251 245 246 250 259 261 277
185 171 156 143 134 129 131 131 128 126 124 120 118 118 115 113 110 110 112 110 103 100 95 88 71 41 18 360 350 324 312 315 306 298 288 279 269 257 252 254 261 264 269
153 144 138 135 134 131 130 131 129 124 121 119 116 115 114 112 109 109 110 110 106 98 92 81 61 29 6 350 337 319 320 312 304 301 300 292 290 270 266 267 265 267 268
126 128 131 134 132 129 127 126 124 121 119 118 116 115 113 111 111 113 113 109 103 91 78 68 46 16 349 329 316 311 308 304 302 303 301 296 294 289 281 274 275 275 283
134 135 136 133 129 126 126 124 120 121 120 118 118 116 115 116 118 117 111 104 98 87 71 54 33 1 330 316 309 304 298 306 313 307 300 298 295 286 282 285 280 288 292
146 147 143 135 130 127 125 125 123 121 122 120 118 117 117 117 115 110 105 97 88 81 66 44 16 354 331 311 303 290 287 304 308 301 296 297 304 309 309 311 309 306 302
157 151 147 143 140 138 134 129 125 122 121 120 119 121 119 115 111 108 103 92 78 65 48 25 0 344 328 316 319 321 294 284 297 297 293 294 299 307 317 315 312 310 313
162 159 156 149 143 141 139 132 128 122 117 117 119 121 118 112 109 105 93 81 70 51 29 3 339 317 311 323 324 321 322 289 291 292 295 306 311 315 301 302 308 312 312
158 152 143 135 132 128 125 121 120 118 117 118 118 118 113 107 101 93 86 77 59 35 3 327 322 321 323 331 326 322 325 293 285 289 291 294 296 298 305 310 314 301 302
136 132 132 132 129 127 125 119 114 115 117 118 117 113 111 108 101 93 84 66 45 10 328 324 332 327 319 327 325 324 302 290 289 291 294 300 296 306 316 321 312 309 312
119 121 121 122 122 124 122 118 119 119 119 115 108 104 105 107 105 99 83 56 28 345 339 332 323 315 309 321 326 325 299 296 295 291 288 309 317 317 323 322 317 318 314
113 118 118 118 122 123 119 117 117 115 113 108 102 98 101 105 106 98 81 44 16 359 345 323 316 312 314 323 326 324 322 309 307 311 308 304 319 323 325 326 321 312 318
109 114 113 109 108 115 116 113 110 109 107 104 101 99 98 98 96 84 56 32 14 351 334 322 316 307 307 321 324 327 327 324 319 319 313 312 323 327 328 327 319 322 328
108 110 111 106 95 96 113 114 113 112 108 104 104 106 97 80 73 64 38 14 358 341 324 316 315 316 312 315 325 326 326 326 326 317 320 324 328 331 329 321 323 328 322
106 109 107 104 94 88 97 111 116 114 112 110 109 103 91 72 48 33 18 356 338 325 318 317 318 316 315 310 308 308 316 322 321 313 319 327 329 329 325 323 322 317 313
97 98 104 105 103 101 100 106 115 115 111 108 104 97 87 76 43 10 344 330 300 296 317 312 308 319 318 321 329 330 326 329 322 329 327 326 326 326 323 321 320 318 318
102 102 104 109 110 108 105 107 114 117 117 111 103 96 87 58 32 358 334 328 324 327 331 333 332 325 325 328 331 332 335 334 334 336 328 323 321 320 321 320 319 317 316
Height
1449 1451 1452 1453 1454 1455 1457 1460 1464 1468 1471 1474 1480 1484 1487 1491 1494 1497 1499 1501 1502 1503 1504 1504 1503 1501 1499 1496 1494 1493 1492 1489 1487 1484 1482 1481 1480 1478 1477 1477 1477 1476 1474
1442 1444 1447 1448 1449 1450 1452 1456 1460 1464 1467 1472 1478 1482 1485 1489 1492 1495 1497 1500 1501 1502 1502 1501 1500 1498 1496 1494 1493 1492 1490 1488 1485 1483 1480 1478 1477 1476 1476 1476 1474 1470 1468
1435 1437 1440 1442 1444 1446 1448 1451 1455 1460 1464 1470 1475 1479 1483 1486 1489 1492 1495 1498 1499 1500 1500 1499 1498 1496 1494 1493 1492 1490 1489 1488 1486 1484 1482 1479 1475 1471 1467 1468 1466 1463 1461
1427 1429 1432 1435 1438 1441 1445 1449 1453 1457 1462 1467 1472 1476 1479 1482 1486 1490 1493 1496 1497 1498 1497 1497 1496 1494 1492 1491 1490 1489 1488 1486 1484 1483 1481 1480 1476 1471 1463 1460 1459 1456 1453
1417 1421 1425 1428 1433 1437 1441 1445 1449 1454 1460 1465 1469 1474 1477 1481 1485 1488 1492 1494 1495 1496 1496 1495 1494 1492 1491 1490 1489 1488 1486 1484 1482 1480 1478 1476 1473 1469 1463 1453 1449 1446 1444
1408 1412 1417 1422 1428 1434 1438 1441 1445 1451 1457 1462 1466 1471 1475 1478 1482 1486 1489 1491 1493 1494 1494 1493 1491 1490 1489 1488 1487 1486 1484 1482 1480 1477 1474 1471 1468 1465 1460 1452 1443 1437 1434
1402 1405 1409 1415 1422 1428 1433 1437 1442 1448 1454 1459 1463 1468 1473 1477 1481 1485 1488 1489 1491 1492 1491 1490 1489 1488 1487 1485 1484 1483 1481 1479 1477 1474 1472 1468 1465 1462 1458 1451 1441 1431 1424
1396 1400 1404 1409 1415 1422 1428 1434 1439 1445 1451 1456 1460 1466 1471 1476 1481 1485 1487 1488 1489 1489 1488 1488 1487 1485 1484 1482 1481 1479 1478 1476 1473 1470 1468 1464 1461 1458 1454 1449 1440 1427 1418
1391 1394 1399 1405 1411 1418 1425 1431 1437 1443 1449 1454 1458 1464 1469 1474 1479 1483 1484 1486 1486 1486 1486 1485 1484 1483 1481 1479 1477 1476 1474 1472 1469 1466 1463 1459 1456 1452 1449 1444 1440 1433 1418
1385 1388 1393 1400 1408 1416 1424 1432 1437 1442 1448 1453 1457 1462 1468 1473 1477 1480 1482 1483 1484 1484 1483 1482 1481 1480 1478 1476 1474 1472 1470 1467 1464 1461 1458 1454 1450 1445 1442 1438 1434 1429 1421
1378 1383 1389 1396 1405 1415 1423 1430 1435 1440 1446 1451 1456 1462 1466 1471 1475 1477 1479 1480 1481 1481 1480 1479 1478 1477 1474 1472 1469 1468 1465 1463 1460 1456 1452 1447 1443 1439 1435 1431 1427 1423 1417
1375 1381 1387 1394 1403 1412 1421 1429 1434 1439 1445 1451 1456 1461 1465 1469 1472 1475 1476 1477 1478 1477 1477 1476 1475 1473 1470 1468 1466 1463 1461 1458 1454 1450 1445 1440 1436 1431 1428 1424 1419 1415 1410
1376 1381 1388 1396 1403 1411 1420 1427 1433 1437 1444 1450 1455 1459 1463 1467 1471 1473 1474 1474 1474 1474 1473 1472 1471 1469 1467 1465 1462 1459 1456 1452 1448 1443 1438 1433 1429 1424 1420 1416 1412 1407 1403
1377 1383 1389 1397 1405 1412 1420 1427 1432 1437 1443 1449 1454 1459 1463 1466 1468 1470 1471 1471 1471 1470 1469 1468 1467 1465 1463 1461 1458 1454 1450 1446 1442 1437 1432 1427 1422 1417 1413 1409 1405 1401 1396
1379 1384 1390 1397 1405 1413 1420 1426 1431 1437 1443 1449 1454 1458 1461 1464 1466 1467 1468 1468 1467 1466 1466 1465 1464 1462 1460 1457 1453 1449 1444 1440 1435 1431 1426 1421 1417 1413 1409 1406 1400 1395 1389
1380 1385 1392 1399 1406 1412 1419 1425 1431 1437 1443 1448 1453 1457 1460 1462 1463 1465 1465 1465 1464 1464 1463 1462 1460 1458 1455 1452 1448 1444 1438 1434 1429 1424 1420 1416 1412 1407 1404 1399 1394 1390 1384
1380 1386 1392 1399 1405 1413 1419 1425 1431 1437 1443 1448 1452 1456 1458 1460 1461 1462 1462 1462 1462 1462 1460 1459 1456 1454 1450 1446 1442 1438 1433 1428 1424 1419 1415 1410 1407 1402 1396 1390 1386 1382 1378
1382 1387 1393 1400 1407 1414 1421 1426 1432 1437 1443 1447 1451 1454 1456 1458 1459 1460 1460 1460 1460 1458 1457 1455 1452 1449 1445 1441 1436 1432 1427 1423 1419 1415 1411 1406 1400 1395 1390 1385 1379 1373 1368
1382 1387 1394 1401 1408 1415 1421 1427 1432 1438 1443 1447 1450 1453 1455 1456 1457 1458 1458 1458 1457 1455 1453 1451 1447 1443 1439 1435 1431 1426 1421 1418 1414 1410 1406 1401 1396 1390 1386 1379 1372 1364 1358
1383 1389 1396 1404 1410 1417 1422 1427 1433 1438 1442 1446 1449 1451 1454 1455 1456 1456 1456 1454 1453 1451 1449 1446 1443 1438 1434 1430 1425 1421 1417 1412 1408 1404 1400 1396 1391 1386 1380 1374 1366 1357 1351
1385 1392 1399 1406 1412 1418 1424 1429 1434 1438 1442 1445 1448 1451 1453 1454 1454 1454 1452 1451 1450 1448 1445 1442 1439 1435 1430 1425 1421 1417 1413 1408 1404 1399 1394 1389 1385 1380 1374 1368 1361 1354 1348
1389 1395 1401 1408 1415 1421 1426 1430 1434 1438 1442 1445 1448 1450 1452 1452 1452 1451 1450 1448 1446 1443 1440 1437 1434 1430 1426 1421 1416 1413 1409 1405 1400 1394 1389 1384 1379 1373 1367 1360 1355 1350 1343
1394 1401 1406 1411 1418 1424 1428 1431 1435 1439 1442 1445 1447 1449 1450 1450 1449 1448 1447 1445 1442 1439 1436 1432 1428 1424 1421 1417 1412 1408 1404 1400 1396 1390 1384 1379 1372 1366 1360 1355 1350 1344 1338
1401 1406 1410 1414 1420 1426 1430 1433 1437 1440 1443 1445 1446 1447 1447 1447 1447 1445 1444 1442 1439 1436 1432 1428 1424 1420 1416 1412 1407 1403 1399 1395 1390 1384 1378 1373 1367 1361 1356 1350 1345 1339 1334
1406 1411 1414 1418 1422 1427 1431 1435 1438 1441 1442 1444 1445 1445 1445 1445 1444 1443 1442 1439 1436 1433 1429 1425 1421 1416 1411 1409 1406 1401 1396 1391 1385 1379 1372 1367 1361 1356 1350 1346 1341 1335 1330
1410 1415 1419 1422 1426 1429 1433 1436 1438 1440 1441 1442 1443 1444 1444 1443 1442 1441 1440 1437 1434 1431 1427 1423 1419 1414 1410 1405 1401 1397 1392 1386 1380 1375 1369 1363 1358 1353 1347 1342 1336 1331 1326